星链-31179 (STARLINK-31179 )

导读

STARLINK-31179是美国SpaceX公司于2024年1月7日发射的星链计划卫星,属于SpaceX打造的低轨互联网星座的一员,运行在低地球轨道,主要为全球偏远、基础设施匮乏地区提供高速低延迟宽带互联网接入,支持视频通话、在线游戏等实时应用,是星链大规模组网推进全球覆盖的重要组成部分。

Basic Information
目录编号:
58750
目录名称:
STARLINK-31179
国际标识:
2024-005Y
轨道中心:
EARTH
卫星名称:
星链-31179
卫星全名:
星链-31179 (STARLINK-31179 )
卫星状态:
在轨 (已飞行978 天)
发射日期:
2024-01-07 UTC
国别 :
美国 (US)
星等 :
--
This satellite is enrolled in the Space Conjunction Data Service (SCDS) and the current flight risk assessment level is: No High Risk
Orbit Information
数据来源 国际轨道数据
星历时间: 2026-09-11T09:49:14+0800
12小时前
查看轨道信息
半长轴: 6861.209km
偏心率: 0.0001624
轨道倾角: 43.001°
近地点辐角 272.130°
升交点赤经 253.006°
平近点角 87.937°
近地点: 481.957km
远地点: 484.187km
周期: 94.267分钟
每日圈数: 15.275725
Detailed Information
固有亮度:
5
最大亮度:
0.3
卫星平台:
Starlink v2.0 mini
覆盖范围:
全球
运营商:
太空探索技术公司
运营商所在国:
美国
制造商(研发单位):
太空探索技术公司
制造商所在国:
美国
使用方式:
暂无
Satellite Introduction
星链(Starlink)计划是由太空探索技术公司(SpaceX)提出的一个巨型低轨卫星互联网星座项目,计划在2019年至2024年间在太空搭建由约1.2万颗卫星组成的“星链”网络,其中1584颗将部署在地球上空550千米处的近地轨道,并从2020年开始工作。该卫星仍在工作。
2D Orbit Map
3D Orbit Map
Orbit Altitude Analysis Chart
Orbit Inclination Analysis Chart
Orbit Comprehensive Analysis Chart
View Comprehensive Chart
Conjunction Data List
Event ID Objects TCA Miss Dist (km) Collision Risk Probability Collision Risk Index (CRI) Action
CDM_260913-052005-875006-647221
2026-09-13T
05:20:37+0000
1.050 km
极远距离
1.267889E-5 中风险 0.57
CDM_260912-123605-875006-306621
2026-09-12T
12:36:44+0000
1.108 km
极远距离
1.033164E-5 中风险 0.55
CDM_260913-034605-875006-647221
2026-09-13T
03:46:28+0000
1.615 km
极远距离
3.039714E-6 低风险 0.45
CDM_260911-185105-875005-912425
VSP ROSE (59124)
2026-09-11T
18:51:52+0000
2.602 km
极远距离
1.572841E-6 低风险 0.39
CDM_260905-020105-870205-875021
2026-09-05T
02:01:54+0000
2.688 km
极远距离
1.500125E-6 低风险 0.39
CDM_260912-194005-875006-306621
2026-09-12T
19:40:26+0000
2.273 km
极远距离
1.256602E-6 低风险 0.37
CDM_260912-084605-829105-875023
2026-09-12T
08:46:30+0000
2.813 km
极远距离
1.223471E-6 低风险 0.37
CDM_260912-180605-875006-306621
2026-09-12T
18:06:17+0000
2.749 km
极远距离
9.150813E-7 极低风险 0.34
Miss Distance Evolution Trend with All Objects
Collision Probability Evolution Trend with All Objects